Year,Month,Day,Hour,Minute,Value (Times are PST for temperature in C)
2015,05,04,00,00,8.60
2015,05,04,00,01,8.60
2015,05,04,00,02,8.60
2015,05,04,00,03,8.50
2015,05,04,00,04,8.50
2015,05,04,00,05,8.50
2015,05,04,00,06,8.50
2015,05,04,00,07,8.50
2015,05,04,00,08,8.50
2015,05,04,00,09,8.50
2015,05,04,00,10,8.50
2015,05,04,00,11,8.50
2015,05,04,00,12,8.50
2015,05,04,00,13,8.50
2015,05,04,00,14,8.40
2015,05,04,00,15,8.40
2015,05,04,00,16,8.40
2015,05,04,00,17,8.40
2015,05,04,00,18,8.40
2015,05,04,00,19,8.40
2015,05,04,00,20,8.40
2015,05,04,00,21,8.40
2015,05,04,00,22,8.40
2015,05,04,00,23,8.40
2015,05,04,00,24,8.40
2015,05,04,00,25,8.40
2015,05,04,00,26,8.40
2015,05,04,00,27,8.50
2015,05,04,00,28,8.50
2015,05,04,00,29,8.50
2015,05,04,00,30,8.50
2015,05,04,00,31,8.50
2015,05,04,00,32,8.50
2015,05,04,00,33,8.40
2015,05,04,00,34,8.50
2015,05,04,00,35,8.40
2015,05,04,00,36,8.40
2015,05,04,00,37,8.40
2015,05,04,00,38,8.40
2015,05,04,00,39,8.40
2015,05,04,00,40,8.40
2015,05,04,00,41,8.40
2015,05,04,00,42,8.40
2015,05,04,00,43,8.40
2015,05,04,00,44,8.40
2015,05,04,00,45,8.40
2015,05,04,00,46,8.40
2015,05,04,00,47,8.40
2015,05,04,00,48,8.40
2015,05,04,00,49,8.40
2015,05,04,00,50,8.40
2015,05,04,00,51,8.50
2015,05,04,00,52,8.50
2015,05,04,00,53,8.50
2015,05,04,00,54,8.50
2015,05,04,00,55,8.50
2015,05,04,00,56,8.50
2015,05,04,00,57,8.50
2015,05,04,00,58,8.50
2015,05,04,00,59,8.50
2015,05,04,01,00,8.40
2015,05,04,01,01,8.40
2015,05,04,01,02,8.40
2015,05,04,01,03,8.40
2015,05,04,01,04,8.40
2015,05,04,01,05,8.40
2015,05,04,01,06,8.40
2015,05,04,01,07,8.40
2015,05,04,01,08,8.40
2015,05,04,01,09,8.40
2015,05,04,01,10,8.30
2015,05,04,01,11,8.30
2015,05,04,01,12,8.30
2015,05,04,01,13,8.30
2015,05,04,01,14,8.30
2015,05,04,01,15,8.30
2015,05,04,01,16,8.30
2015,05,04,01,17,8.30
2015,05,04,01,18,8.30
2015,05,04,01,19,8.20
2015,05,04,01,20,8.20
2015,05,04,01,21,8.20
2015,05,04,01,22,8.20
2015,05,04,01,23,8.20
2015,05,04,01,24,8.10
2015,05,04,01,25,8.10
2015,05,04,01,26,8.10
2015,05,04,01,27,8.10
2015,05,04,01,28,8.00
2015,05,04,01,29,8.00
2015,05,04,01,30,8.00
2015,05,04,01,31,7.90
2015,05,04,01,32,7.90
2015,05,04,01,33,7.90
2015,05,04,01,34,7.90
2015,05,04,01,35,7.80
2015,05,04,01,36,7.80
2015,05,04,01,37,7.80
2015,05,04,01,38,7.80
2015,05,04,01,39,7.80
2015,05,04,01,40,7.80
2015,05,04,01,41,7.80
2015,05,04,01,42,7.80
2015,05,04,01,43,7.80
2015,05,04,01,44,7.80
2015,05,04,01,45,7.80
2015,05,04,01,46,7.90
2015,05,04,01,47,7.90
2015,05,04,01,48,7.90
2015,05,04,01,49,8.00
2015,05,04,01,50,8.00
2015,05,04,01,51,8.10
2015,05,04,01,52,8.10
2015,05,04,01,53,8.20
2015,05,04,01,54,8.20
2015,05,04,01,55,8.20
2015,05,04,01,56,8.30
2015,05,04,01,57,8.30
2015,05,04,01,58,8.30
2015,05,04,01,59,8.30
2015,05,04,02,00,8.30
2015,05,04,02,01,8.40
2015,05,04,02,02,8.40
2015,05,04,02,03,8.40
2015,05,04,02,04,8.40
2015,05,04,02,05,8.40
2015,05,04,02,06,8.40
2015,05,04,02,07,8.40
2015,05,04,02,08,8.40
2015,05,04,02,09,8.40
2015,05,04,02,10,8.40
2015,05,04,02,11,8.40
2015,05,04,02,12,8.40
2015,05,04,02,13,8.40
2015,05,04,02,14,8.40
2015,05,04,02,15,8.40
2015,05,04,02,16,8.40
2015,05,04,02,17,8.40
2015,05,04,02,18,8.40
2015,05,04,02,19,8.40
2015,05,04,02,20,8.40
2015,05,04,02,21,8.40
2015,05,04,02,22,8.40
2015,05,04,02,23,8.40
2015,05,04,02,24,8.40
2015,05,04,02,25,8.40
2015,05,04,02,26,8.40
2015,05,04,02,27,8.40
2015,05,04,02,28,8.40
2015,05,04,02,29,8.40
2015,05,04,02,30,8.40
2015,05,04,02,31,8.40
2015,05,04,02,32,8.40
2015,05,04,02,33,8.40
2015,05,04,02,34,8.40
2015,05,04,02,35,8.40
2015,05,04,02,36,8.40
2015,05,04,02,37,8.50
2015,05,04,02,38,8.50
2015,05,04,02,39,8.50
2015,05,04,02,40,8.50
2015,05,04,02,41,8.50
2015,05,04,02,42,8.50
2015,05,04,02,43,8.60
2015,05,04,02,44,8.60
2015,05,04,02,45,8.60
2015,05,04,02,46,8.70
2015,05,04,02,47,8.70
2015,05,04,02,48,8.70
2015,05,04,02,49,8.70
2015,05,04,02,50,8.70
2015,05,04,02,51,8.80
2015,05,04,02,52,8.80
2015,05,04,02,53,8.80
2015,05,04,02,54,8.80
2015,05,04,02,55,8.80
2015,05,04,02,56,8.90
2015,05,04,02,57,8.90
2015,05,04,02,58,8.90
2015,05,04,02,59,8.90
2015,05,04,03,00,8.80
2015,05,04,03,01,8.80
2015,05,04,03,02,8.80
2015,05,04,03,03,8.90
2015,05,04,03,04,8.90
2015,05,04,03,05,8.90
2015,05,04,03,06,8.90
2015,05,04,03,07,8.90
2015,05,04,03,08,8.90
2015,05,04,03,09,8.90
2015,05,04,03,10,8.90
2015,05,04,03,11,8.80
2015,05,04,03,12,8.80
2015,05,04,03,13,8.80
2015,05,04,03,14,8.80
2015,05,04,03,15,8.80
2015,05,04,03,16,8.80
2015,05,04,03,17,8.80
2015,05,04,03,18,8.70
2015,05,04,03,19,8.70
2015,05,04,03,20,8.70
2015,05,04,03,21,8.70
2015,05,04,03,22,8.70
2015,05,04,03,23,8.70
2015,05,04,03,24,8.70
2015,05,04,03,25,8.70
2015,05,04,03,26,8.70
2015,05,04,03,27,8.70
2015,05,04,03,28,8.70
2015,05,04,03,29,8.70
2015,05,04,03,30,8.70
2015,05,04,03,31,8.60
2015,05,04,03,32,8.60
2015,05,04,03,33,8.60
2015,05,04,03,34,8.60
2015,05,04,03,35,8.60
2015,05,04,03,36,8.60
2015,05,04,03,37,8.60
2015,05,04,03,38,8.60
2015,05,04,03,39,8.60
2015,05,04,03,40,8.50
2015,05,04,03,41,8.50
2015,05,04,03,42,8.50
2015,05,04,03,43,8.50
2015,05,04,03,44,8.50
2015,05,04,03,45,8.50
2015,05,04,03,46,8.50
2015,05,04,03,47,8.50
2015,05,04,03,48,8.50
2015,05,04,03,49,8.50
2015,05,04,03,50,8.50
2015,05,04,03,51,8.50
2015,05,04,03,52,8.50
2015,05,04,03,53,8.50
2015,05,04,03,54,8.40
2015,05,04,03,55,8.40
2015,05,04,03,56,8.40
2015,05,04,03,57,8.40
2015,05,04,03,58,8.40
2015,05,04,03,59,8.40
2015,05,04,04,00,8.40
2015,05,04,04,01,8.40
2015,05,04,04,02,8.40
2015,05,04,04,03,8.40
2015,05,04,04,04,8.40
2015,05,04,04,05,8.40
2015,05,04,04,06,8.40
2015,05,04,04,07,8.40
2015,05,04,04,08,8.40
2015,05,04,04,09,8.40
2015,05,04,04,10,8.40
2015,05,04,04,11,8.40
2015,05,04,04,12,8.40
2015,05,04,04,13,8.50
2015,05,04,04,14,8.50
2015,05,04,04,15,8.50
2015,05,04,04,16,8.50
2015,05,04,04,17,8.60
2015,05,04,04,18,8.60
2015,05,04,04,19,8.70
2015,05,04,04,20,8.70
2015,05,04,04,21,8.80
2015,05,04,04,22,8.80
2015,05,04,04,23,8.90
2015,05,04,04,24,9.00
2015,05,04,04,25,9.00
2015,05,04,04,26,9.10
2015,05,04,04,27,9.20
2015,05,04,04,28,9.20
2015,05,04,04,29,9.20
2015,05,04,04,30,9.30
2015,05,04,04,31,9.30
2015,05,04,04,32,9.30
2015,05,04,04,33,9.30
2015,05,04,04,34,9.30
2015,05,04,04,35,9.40
2015,05,04,04,36,9.40
2015,05,04,04,37,9.40
2015,05,04,04,38,9.40
2015,05,04,04,39,9.50
2015,05,04,04,40,9.50
2015,05,04,04,41,9.50
2015,05,04,04,42,9.50
2015,05,04,04,43,9.50
2015,05,04,04,44,9.60
2015,05,04,04,45,9.50
2015,05,04,04,46,9.60
2015,05,04,04,47,9.50
2015,05,04,04,48,9.50
2015,05,04,04,49,9.50
2015,05,04,04,50,9.50
2015,05,04,04,51,9.50
2015,05,04,04,52,9.50
2015,05,04,04,53,9.50
2015,05,04,04,54,9.50
2015,05,04,04,55,9.50
2015,05,04,04,56,9.50
2015,05,04,04,57,9.50
2015,05,04,04,58,9.50
2015,05,04,04,59,9.50
2015,05,04,05,00,9.50
2015,05,04,05,01,9.50
2015,05,04,05,02,9.50
2015,05,04,05,03,9.50
2015,05,04,05,04,9.50
2015,05,04,05,05,9.50
2015,05,04,05,06,9.60
2015,05,04,05,07,9.60
2015,05,04,05,08,9.60
2015,05,04,05,09,9.60
2015,05,04,05,10,9.60
2015,05,04,05,11,9.60
2015,05,04,05,12,9.60
2015,05,04,05,13,9.60
2015,05,04,05,14,9.60
2015,05,04,05,15,9.60
2015,05,04,05,16,9.60
2015,05,04,05,17,9.60
2015,05,04,05,18,9.60
2015,05,04,05,19,9.60
2015,05,04,05,20,9.70
2015,05,04,05,21,9.70
2015,05,04,05,22,9.70
2015,05,04,05,23,9.70
2015,05,04,05,24,9.70
2015,05,04,05,25,9.80
2015,05,04,05,26,9.80
2015,05,04,05,27,9.80
2015,05,04,05,28,9.70
2015,05,04,05,29,9.70
2015,05,04,05,30,9.70
2015,05,04,05,31,9.70
2015,05,04,05,32,9.70
2015,05,04,05,33,9.70
2015,05,04,05,34,9.70
2015,05,04,05,35,9.70
2015,05,04,05,36,9.70
2015,05,04,05,37,9.70
2015,05,04,05,38,9.70
2015,05,04,05,39,9.70
2015,05,04,05,40,9.80
2015,05,04,05,41,9.80
2015,05,04,05,42,9.80
2015,05,04,05,43,9.90
2015,05,04,05,44,9.90
2015,05,04,05,45,9.90
2015,05,04,05,46,9.90
2015,05,04,05,47,9.90
2015,05,04,05,48,9.90
2015,05,04,05,49,9.90
2015,05,04,05,50,9.90
2015,05,04,05,51,9.90
2015,05,04,05,52,9.80
2015,05,04,05,53,9.80
2015,05,04,05,54,9.80
2015,05,04,05,55,9.80
2015,05,04,05,56,9.80
2015,05,04,05,57,9.80
2015,05,04,05,58,9.80
2015,05,04,05,59,9.80
2015,05,04,06,00,9.80
2015,05,04,06,01,9.80
2015,05,04,06,02,9.80
2015,05,04,06,03,9.80
2015,05,04,06,04,9.80
2015,05,04,06,05,9.80
2015,05,04,06,06,9.80
2015,05,04,06,07,9.80
2015,05,04,06,08,9.80
2015,05,04,06,09,9.80
2015,05,04,06,10,9.80
2015,05,04,06,11,9.80
2015,05,04,06,12,9.80
2015,05,04,06,13,9.80
2015,05,04,06,14,9.80
2015,05,04,06,15,9.80
2015,05,04,06,16,9.80
2015,05,04,06,17,9.80
2015,05,04,06,18,9.80
2015,05,04,06,19,9.80
2015,05,04,06,20,9.80
2015,05,04,06,21,9.80
2015,05,04,06,22,9.80
2015,05,04,06,23,9.80
2015,05,04,06,24,9.70
2015,05,04,06,25,9.70
2015,05,04,06,26,9.70
2015,05,04,06,27,9.70
2015,05,04,06,28,9.70
2015,05,04,06,29,9.70
2015,05,04,06,30,9.70
2015,05,04,06,31,9.70
2015,05,04,06,32,9.70
2015,05,04,06,33,9.70
2015,05,04,06,34,9.70
2015,05,04,06,35,9.70
2015,05,04,06,36,9.70
2015,05,04,06,37,9.70
2015,05,04,06,38,9.70
2015,05,04,06,39,9.70
2015,05,04,06,40,9.70
2015,05,04,06,41,9.70
2015,05,04,06,42,9.70
2015,05,04,06,43,9.70
2015,05,04,06,44,9.70
2015,05,04,06,45,9.60
2015,05,04,06,46,9.60
2015,05,04,06,47,9.60
2015,05,04,06,48,9.60
2015,05,04,06,49,9.60
2015,05,04,06,50,9.60
2015,05,04,06,51,9.60
2015,05,04,06,52,9.60
2015,05,04,06,53,9.60
2015,05,04,06,54,9.60
2015,05,04,06,55,9.60
2015,05,04,06,56,9.60
2015,05,04,06,57,9.60
2015,05,04,06,58,9.60
2015,05,04,06,59,9.60
2015,05,04,07,00,9.70
2015,05,04,07,01,9.70
2015,05,04,07,02,9.70
2015,05,04,07,03,9.70
2015,05,04,07,04,9.80
2015,05,04,07,05,9.80
2015,05,04,07,06,9.80
2015,05,04,07,07,9.80
2015,05,04,07,08,9.80
2015,05,04,07,09,9.90
2015,05,04,07,10,9.90
2015,05,04,07,11,9.90
2015,05,04,07,12,10.00
2015,05,04,07,13,10.00
2015,05,04,07,14,10.10
2015,05,04,07,15,10.10
2015,05,04,07,16,10.20
2015,05,04,07,17,10.20
2015,05,04,07,18,10.20
2015,05,04,07,19,10.30
2015,05,04,07,20,10.30
2015,05,04,07,21,10.30
2015,05,04,07,22,10.30
2015,05,04,07,23,10.40
2015,05,04,07,24,10.40
2015,05,04,07,25,10.40
2015,05,04,07,26,10.40
2015,05,04,07,27,10.50
2015,05,04,07,28,10.50
2015,05,04,07,29,10.50
2015,05,04,07,30,10.60
2015,05,04,07,31,10.60
2015,05,04,07,32,10.60
2015,05,04,07,33,10.60
2015,05,04,07,34,10.60
2015,05,04,07,35,10.60
2015,05,04,07,36,10.60
2015,05,04,07,37,10.60
2015,05,04,07,38,10.60
2015,05,04,07,39,10.60
2015,05,04,07,40,10.60
2015,05,04,07,41,10.60
2015,05,04,07,42,10.60
2015,05,04,07,43,10.60
2015,05,04,07,44,10.60
2015,05,04,07,45,10.60
2015,05,04,07,46,10.60
2015,05,04,07,47,10.60
2015,05,04,07,48,10.60
2015,05,04,07,49,10.70
2015,05,04,07,50,10.70
2015,05,04,07,51,10.70
2015,05,04,07,52,10.70
2015,05,04,07,53,10.70
2015,05,04,07,54,10.70
2015,05,04,07,55,10.70
2015,05,04,07,56,10.70
2015,05,04,07,57,10.60
2015,05,04,07,58,10.60
2015,05,04,07,59,10.60
2015,05,04,08,00,10.60
2015,05,04,08,01,10.60
2015,05,04,08,02,10.60
2015,05,04,08,03,10.70
2015,05,04,08,04,10.70
2015,05,04,08,05,10.70
2015,05,04,08,06,10.70
2015,05,04,08,07,10.70
2015,05,04,08,08,10.70
2015,05,04,08,09,10.70
2015,05,04,08,10,10.80
2015,05,04,08,11,10.80
2015,05,04,08,12,10.80
2015,05,04,08,13,10.80
2015,05,04,08,14,10.90
2015,05,04,08,15,10.90
2015,05,04,08,16,10.90
2015,05,04,08,17,11.00
2015,05,04,08,18,11.00
2015,05,04,08,19,11.10
2015,05,04,08,20,11.10
2015,05,04,08,21,11.10
2015,05,04,08,22,11.10
2015,05,04,08,23,11.10
2015,05,04,08,24,11.10
2015,05,04,08,25,11.20
2015,05,04,08,26,11.20
2015,05,04,08,27,11.20
2015,05,04,08,28,11.20
2015,05,04,08,29,11.20
2015,05,04,08,30,11.20
2015,05,04,08,31,11.20
2015,05,04,08,32,11.30
2015,05,04,08,33,11.30
2015,05,04,08,34,11.30
2015,05,04,08,35,11.30
2015,05,04,08,36,11.30
2015,05,04,08,37,11.30
2015,05,04,08,38,11.30
2015,05,04,08,39,11.30
2015,05,04,08,40,11.30
2015,05,04,08,41,11.30
2015,05,04,08,42,11.30
2015,05,04,08,43,11.30
2015,05,04,08,44,11.30
2015,05,04,08,45,11.30
2015,05,04,08,46,11.30
2015,05,04,08,47,11.30
2015,05,04,08,48,11.30
2015,05,04,08,49,11.30
2015,05,04,08,50,11.20
2015,05,04,08,51,11.20
2015,05,04,08,52,11.20
2015,05,04,08,53,11.20
2015,05,04,08,54,11.20
2015,05,04,08,55,11.20
2015,05,04,08,56,11.10
2015,05,04,08,57,11.10
2015,05,04,08,58,11.10
2015,05,04,08,59,11.10
2015,05,04,09,00,11.10
2015,05,04,09,01,11.20
2015,05,04,09,02,11.20
2015,05,04,09,03,11.20
2015,05,04,09,04,11.20
2015,05,04,09,05,11.20
2015,05,04,09,06,11.20
2015,05,04,09,07,11.20
2015,05,04,09,08,11.20
2015,05,04,09,09,11.20
2015,05,04,09,10,11.20
2015,05,04,09,11,11.20
2015,05,04,09,12,11.20
2015,05,04,09,13,11.20
2015,05,04,09,14,11.20
2015,05,04,09,15,11.20
2015,05,04,09,16,11.20
2015,05,04,09,17,11.20
2015,05,04,09,18,11.20
2015,05,04,09,19,11.30
2015,05,04,09,20,11.30
2015,05,04,09,21,11.30
2015,05,04,09,22,11.40
2015,05,04,09,23,11.40
2015,05,04,09,24,11.40
2015,05,04,09,25,11.50
2015,05,04,09,26,11.50
2015,05,04,09,27,11.60
2015,05,04,09,28,11.60
2015,05,04,09,29,11.60
2015,05,04,09,30,11.70
2015,05,04,09,31,11.70
2015,05,04,09,32,11.70
2015,05,04,09,33,11.80
2015,05,04,09,34,11.70
2015,05,04,09,35,11.70
2015,05,04,09,36,11.80
2015,05,04,09,37,11.80
2015,05,04,09,38,11.80
2015,05,04,09,39,11.80
2015,05,04,09,40,11.80
2015,05,04,09,41,11.80
2015,05,04,09,42,11.80
2015,05,04,09,43,11.80
2015,05,04,09,44,11.70
2015,05,04,09,45,11.70
2015,05,04,09,46,11.70
2015,05,04,09,47,11.60
2015,05,04,11,06,13.20
2015,05,04,11,07,13.20
2015,05,04,11,08,13.20
2015,05,04,11,09,13.20
2015,05,04,11,10,13.20
2015,05,04,11,11,13.30
2015,05,04,11,12,13.40
2015,05,04,11,13,13.50
2015,05,04,11,14,13.60
2015,05,04,11,15,13.60
2015,05,04,11,16,13.60
2015,05,04,11,17,13.70
2015,05,04,11,18,13.70
2015,05,04,11,19,13.80
2015,05,04,11,20,13.80
2015,05,04,11,21,13.80
2015,05,04,11,22,13.80
2015,05,04,11,23,13.80
2015,05,04,11,24,13.80
2015,05,04,11,25,13.80
2015,05,04,11,26,13.80
2015,05,04,11,27,13.70
2015,05,04,11,28,13.70
2015,05,04,11,29,13.60
2015,05,04,11,30,13.70
2015,05,04,11,31,13.70
2015,05,04,11,32,13.70
2015,05,04,11,33,13.60
2015,05,04,11,34,13.60
2015,05,04,11,35,13.60
2015,05,04,11,36,13.70
2015,05,04,11,37,13.70
2015,05,04,11,38,13.70
2015,05,04,11,39,13.70
2015,05,04,11,40,13.70
2015,05,04,11,41,13.70
2015,05,04,11,42,13.60
2015,05,04,11,43,13.60
2015,05,04,11,44,13.60
2015,05,04,11,45,13.60
2015,05,04,11,46,13.60
2015,05,04,11,47,13.60
2015,05,04,11,48,13.60
2015,05,04,11,49,13.60
2015,05,04,11,50,13.70
2015,05,04,11,51,13.60
2015,05,04,11,52,13.60
2015,05,04,11,53,13.60
2015,05,04,11,54,13.70
2015,05,04,11,55,13.70
2015,05,04,11,56,13.80
2015,05,04,11,57,13.80
2015,05,04,11,58,13.80
2015,05,04,11,59,13.70
2015,05,04,12,00,13.60
2015,05,04,12,01,13.50
2015,05,04,12,02,13.40
2015,05,04,12,03,13.50
2015,05,04,12,04,13.50
2015,05,04,12,05,13.60
2015,05,04,12,06,13.60
2015,05,04,12,07,13.70
2015,05,04,12,08,13.70
2015,05,04,12,09,13.70
2015,05,04,12,10,13.90
2015,05,04,12,11,13.90
2015,05,04,12,12,14.00
2015,05,04,12,13,14.10
2015,05,04,12,14,14.20
2015,05,04,12,15,14.20
2015,05,04,12,16,14.10
2015,05,04,12,17,14.00
2015,05,04,12,18,13.90
2015,05,04,12,19,14.00
2015,05,04,12,20,14.10
2015,05,04,12,21,14.20
2015,05,04,12,22,14.20
2015,05,04,12,23,14.20
2015,05,04,12,24,14.20
2015,05,04,12,25,14.10
2015,05,04,12,26,14.00
2015,05,04,12,27,14.00
2015,05,04,12,28,13.90
2015,05,04,12,29,13.90
2015,05,04,12,30,13.90
2015,05,04,12,31,13.80
2015,05,04,12,32,13.80
2015,05,04,12,33,13.90
2015,05,04,12,34,14.10
2015,05,04,12,35,14.20
2015,05,04,12,36,14.40
2015,05,04,12,37,14.40
2015,05,04,12,38,14.50
2015,05,04,12,39,14.70
2015,05,04,12,40,14.70
2015,05,04,12,41,14.80
2015,05,04,12,42,14.90
2015,05,04,12,43,14.80
2015,05,04,12,44,14.80
2015,05,04,12,45,14.80
2015,05,04,12,46,14.70
2015,05,04,12,47,14.70
2015,05,04,12,48,14.70
2015,05,04,12,49,14.70
2015,05,04,12,50,14.80
2015,05,04,12,51,14.90
2015,05,04,12,52,15.00
2015,05,04,12,53,15.00
2015,05,04,12,54,15.00
2015,05,04,12,55,15.00
2015,05,04,12,56,15.10
2015,05,04,12,57,15.20
2015,05,04,12,58,15.30
2015,05,04,12,59,15.20
2015,05,04,13,00,15.10
2015,05,04,13,01,15.00
2015,05,04,13,02,14.80
2015,05,04,13,03,14.70
2015,05,04,13,04,14.50
2015,05,04,13,05,14.30
2015,05,04,13,06,14.30
2015,05,04,13,07,14.20
2015,05,04,13,08,14.20
2015,05,04,13,09,14.20
2015,05,04,13,10,14.20
2015,05,04,13,11,14.10
2015,05,04,13,12,13.90
2015,05,04,13,13,13.90
2015,05,04,13,14,13.90
2015,05,04,13,15,13.90
2015,05,04,13,16,13.90
2015,05,04,13,17,13.90
2015,05,04,13,18,13.90
2015,05,04,13,19,13.80
2015,05,04,13,20,13.80
2015,05,04,13,21,13.80
2015,05,04,13,22,13.80
2015,05,04,13,23,13.90
2015,05,04,13,24,14.00
2015,05,04,13,25,14.00
2015,05,04,13,26,14.10
2015,05,04,13,27,14.00
2015,05,04,13,28,14.00
2015,05,04,13,29,14.00
2015,05,04,13,30,14.10
2015,05,04,13,31,14.20
2015,05,04,13,32,14.20
2015,05,04,13,33,14.20
2015,05,04,13,34,14.10
2015,05,04,13,35,14.10
2015,05,04,13,36,14.10
2015,05,04,13,37,14.00
2015,05,04,13,38,13.90
2015,05,04,13,39,13.80
2015,05,04,13,40,13.70
2015,05,04,13,41,13.70
2015,05,04,13,42,13.70
2015,05,04,13,43,13.70
2015,05,04,13,44,13.70
2015,05,04,13,45,13.70
2015,05,04,13,46,13.70
2015,05,04,13,47,13.60
2015,05,04,13,48,13.50
2015,05,04,13,49,13.40
2015,05,04,13,50,13.30
2015,05,04,13,51,13.30
2015,05,04,13,52,13.40
2015,05,04,13,53,13.50
2015,05,04,13,54,13.50
2015,05,04,13,55,13.60
2015,05,04,13,56,13.70
2015,05,04,13,57,13.80
2015,05,04,13,58,13.90
2015,05,04,13,59,14.00
2015,05,04,14,00,14.10
2015,05,04,14,01,14.20
2015,05,04,14,02,14.30
2015,05,04,14,03,14.30
2015,05,04,14,04,14.30
2015,05,04,14,05,14.20
2015,05,04,14,06,14.00
2015,05,04,14,07,14.00
2015,05,04,14,08,14.00
2015,05,04,14,09,14.00
2015,05,04,14,10,14.00
2015,05,04,14,11,14.10
2015,05,04,14,12,14.10
2015,05,04,14,13,14.20
2015,05,04,14,14,14.20
2015,05,04,14,15,14.20
2015,05,04,14,16,14.20
2015,05,04,14,17,14.20
2015,05,04,14,18,14.20
2015,05,04,14,19,14.20
2015,05,04,14,20,14.20
2015,05,04,14,21,14.20
2015,05,04,14,22,14.10
2015,05,04,14,23,14.10
2015,05,04,14,24,14.00
2015,05,04,14,25,13.90
2015,05,04,14,26,13.90
2015,05,04,14,27,13.80
2015,05,04,14,28,13.70
2015,05,04,14,29,13.60
2015,05,04,14,30,13.40
2015,05,04,14,31,13.30
2015,05,04,14,32,13.10
2015,05,04,14,33,13.10
2015,05,04,14,34,13.20
2015,05,04,14,35,13.20
2015,05,04,14,36,13.30
2015,05,04,14,37,13.50
2015,05,04,14,38,13.60
2015,05,04,14,39,13.80
2015,05,04,14,40,13.90
2015,05,04,14,41,14.00
2015,05,04,14,42,14.00
2015,05,04,14,43,14.00
2015,05,04,14,44,14.00
2015,05,04,14,45,13.90
2015,05,04,14,46,13.90
2015,05,04,14,47,13.90
2015,05,04,14,48,13.90
2015,05,04,14,49,13.90
2015,05,04,14,50,13.90
2015,05,04,14,51,13.90
2015,05,04,14,52,13.90
2015,05,04,14,53,13.90
2015,05,04,14,54,13.80
2015,05,04,14,55,13.80
2015,05,04,14,56,13.80
2015,05,04,14,57,13.70
2015,05,04,14,58,13.80
2015,05,04,14,59,13.80
2015,05,04,15,00,13.80
2015,05,04,15,01,13.80
2015,05,04,15,02,13.70
2015,05,04,15,03,13.60
2015,05,04,15,04,13.50
2015,05,04,15,05,13.50
2015,05,04,15,06,13.50
2015,05,04,15,07,13.50
2015,05,04,15,08,13.50
2015,05,04,15,09,13.40
2015,05,04,15,10,13.30
2015,05,04,15,11,13.30
2015,05,04,15,12,13.20
2015,05,04,15,13,13.10
2015,05,04,15,14,13.10
2015,05,04,15,15,13.00
2015,05,04,15,16,12.90
2015,05,04,15,17,12.80
2015,05,04,15,18,12.80
2015,05,04,15,19,12.80
2015,05,04,15,20,12.80
2015,05,04,15,21,12.80
2015,05,04,15,22,12.70
2015,05,04,15,23,12.70
2015,05,04,15,24,12.70
2015,05,04,15,25,12.70
2015,05,04,15,26,12.60
2015,05,04,15,27,12.60
2015,05,04,15,28,12.50
2015,05,04,15,29,12.50
2015,05,04,15,30,12.40
2015,05,04,15,31,12.20
2015,05,04,15,32,12.20
2015,05,04,15,33,12.10
2015,05,04,15,34,12.00
2015,05,04,15,35,11.80
2015,05,04,15,36,11.60
2015,05,04,15,37,11.40
2015,05,04,15,38,11.20
2015,05,04,15,39,11.10
2015,05,04,15,40,11.00
2015,05,04,15,41,10.90
2015,05,04,15,42,10.80
2015,05,04,15,43,10.70
2015,05,04,15,44,10.60
2015,05,04,15,45,10.50
2015,05,04,15,46,10.50
2015,05,04,15,47,10.50
2015,05,04,15,48,10.50
2015,05,04,15,49,10.40
2015,05,04,15,50,10.30
2015,05,04,15,51,10.30
2015,05,04,15,52,10.30
2015,05,04,15,53,10.30
2015,05,04,15,54,10.30
2015,05,04,15,55,10.30
2015,05,04,15,56,10.40
2015,05,04,15,57,10.40
2015,05,04,15,58,10.40
2015,05,04,15,59,10.50
2015,05,04,16,00,10.50
2015,05,04,16,01,10.60
2015,05,04,16,02,10.70
2015,05,04,16,03,10.70
2015,05,04,16,04,10.80
2015,05,04,16,05,10.80
2015,05,04,16,06,10.80
2015,05,04,16,07,10.90
2015,05,04,16,08,11.00
2015,05,04,16,09,11.20
2015,05,04,16,10,11.30
2015,05,04,16,11,11.40
2015,05,04,16,12,11.50
2015,05,04,16,13,11.60
2015,05,04,16,14,11.70
2015,05,04,16,15,11.70
2015,05,04,16,16,11.80
2015,05,04,16,17,11.80
2015,05,04,16,18,11.80
2015,05,04,16,19,11.90
2015,05,04,16,20,11.90
2015,05,04,16,21,12.00
2015,05,04,16,22,12.10
2015,05,04,16,23,12.20
2015,05,04,16,24,12.30
2015,05,04,16,25,12.30
2015,05,04,16,26,12.40
2015,05,04,16,27,12.40
2015,05,04,16,28,12.50
2015,05,04,16,29,12.50
2015,05,04,16,30,12.50
2015,05,04,16,31,12.50
2015,05,04,16,32,12.50
2015,05,04,16,33,12.50
2015,05,04,16,34,12.40
2015,05,04,16,35,12.30
2015,05,04,16,36,12.30
2015,05,04,16,37,12.20
2015,05,04,16,38,12.20
2015,05,04,16,39,12.30
2015,05,04,16,40,12.30
2015,05,04,16,41,12.40
2015,05,04,16,42,12.50
2015,05,04,16,43,12.60
2015,05,04,16,44,12.60
2015,05,04,16,45,12.60
2015,05,04,16,46,12.60
2015,05,04,16,47,12.60
2015,05,04,16,48,12.60
2015,05,04,16,49,12.50
2015,05,04,16,50,12.30
2015,05,04,16,51,12.20
2015,05,04,16,52,12.10
2015,05,04,16,53,12.00
2015,05,04,16,54,11.90
2015,05,04,16,55,11.80
2015,05,04,16,56,11.70
2015,05,04,16,57,11.60
2015,05,04,16,58,11.50
2015,05,04,16,59,11.40
2015,05,04,17,00,11.40
2015,05,04,17,01,11.30
2015,05,04,17,02,11.30
2015,05,04,17,03,11.30
2015,05,04,17,04,11.30
2015,05,04,17,05,11.30
2015,05,04,17,06,11.20
2015,05,04,17,07,11.20
2015,05,04,17,08,11.20
2015,05,04,17,09,11.20
2015,05,04,17,10,11.30
2015,05,04,17,11,11.30
2015,05,04,17,12,11.30
2015,05,04,17,13,11.30
2015,05,04,17,14,11.40
2015,05,04,17,15,11.50
2015,05,04,17,16,11.60
2015,05,04,17,17,11.70
2015,05,04,17,18,11.80
2015,05,04,17,19,11.90
2015,05,04,17,20,12.00
2015,05,04,17,21,12.00
2015,05,04,17,22,12.10
2015,05,04,17,23,12.20
2015,05,04,17,24,12.20
2015,05,04,17,25,12.30
2015,05,04,17,26,12.20
2015,05,04,17,27,12.20
2015,05,04,17,28,12.20
2015,05,04,17,29,12.10
2015,05,04,17,30,12.00
2015,05,04,17,31,11.90
2015,05,04,17,32,11.90
2015,05,04,17,33,11.90
2015,05,04,17,34,12.00
2015,05,04,17,35,12.00
2015,05,04,17,36,12.10
2015,05,04,17,37,12.10
2015,05,04,17,38,12.20
2015,05,04,17,39,12.20
2015,05,04,17,40,12.20
2015,05,04,17,41,12.30
2015,05,04,17,42,12.30
2015,05,04,17,43,12.30
2015,05,04,17,44,12.30
2015,05,04,17,45,12.40
2015,05,04,17,46,12.30
2015,05,04,17,47,12.30
2015,05,04,17,48,12.30
2015,05,04,17,49,12.40
2015,05,04,17,50,12.40
2015,05,04,17,51,12.40
2015,05,04,17,52,12.50
2015,05,04,17,53,12.50
2015,05,04,17,54,12.60
2015,05,04,17,55,12.60
2015,05,04,17,56,12.70
2015,05,04,17,57,12.70
2015,05,04,17,58,12.70
2015,05,04,17,59,12.60
2015,05,04,18,00,12.60
2015,05,04,18,01,12.60
2015,05,04,18,02,12.50
2015,05,04,18,03,12.50
2015,05,04,18,04,12.50
2015,05,04,18,05,12.50
2015,05,04,18,06,12.50
2015,05,04,18,07,12.50
2015,05,04,18,08,12.50
2015,05,04,18,09,12.50
2015,05,04,18,10,12.50
2015,05,04,18,11,12.50
2015,05,04,18,12,12.40
2015,05,04,18,13,12.50
2015,05,04,18,14,12.50
2015,05,04,18,15,12.50
2015,05,04,18,16,12.50
2015,05,04,18,17,12.50
2015,05,04,18,18,12.50
2015,05,04,18,19,12.60
2015,05,04,18,20,12.60
2015,05,04,18,21,12.60
2015,05,04,18,22,12.60
2015,05,04,18,23,12.60
2015,05,04,18,24,12.60
2015,05,04,18,25,12.50
2015,05,04,18,26,12.50
2015,05,04,18,27,12.50
2015,05,04,18,28,12.50
2015,05,04,18,29,12.40
2015,05,04,18,30,12.40
2015,05,04,18,31,12.40
2015,05,04,18,32,12.40
2015,05,04,18,33,12.40
2015,05,04,18,34,12.40
2015,05,04,18,35,12.40
2015,05,04,18,36,12.40
2015,05,04,18,37,12.40
2015,05,04,18,38,12.40
2015,05,04,18,39,12.30
2015,05,04,18,40,12.30
2015,05,04,18,41,12.30
2015,05,04,18,42,12.30
2015,05,04,18,43,12.30
2015,05,04,18,44,12.30
2015,05,04,18,45,12.30
2015,05,04,18,46,12.20
2015,05,04,18,47,12.20
2015,05,04,18,48,12.20
2015,05,04,18,49,12.20
2015,05,04,18,50,12.10
2015,05,04,18,51,12.10
2015,05,04,18,52,12.10
2015,05,04,18,53,12.00
2015,05,04,18,54,11.90
2015,05,04,18,55,11.90
2015,05,04,18,56,11.90